| time (UTC) | temp F | wind direction | speed MPH | gust MPH | rain 1hr in | rain 24hr in | rain mn in | humidity % | barometer mb |
| 20260506211504 | 68 | 230 | 3.0 | 10.0 | 0.00 | 0.11 | 0.11 | 79 | 1007.2 |
| 20260506211003 | 68 | 221 | 4.0 | 11.0 | 0.00 | 0.11 | 0.11 | 79 | 1007.1 |
| 20260506210503 | 68 | 206 | 6.0 | 11.0 | 0.00 | 0.11 | 0.11 | 79 | 1007.1 |
| 20260506210004 | 68 | 300 | 3.0 | 11.0 | 0.00 | 0.11 | 0.11 | 78 | 1007.0 |
| 20260506205504 | 68 | 216 | 6.0 | 16.0 | 0.00 | 0.11 | 0.11 | 78 | 1007.1 |
| 20260506205003 | 67 | 227 | 7.0 | 16.0 | 0.00 | 0.11 | 0.11 | 79 | 1007.1 |
| 20260506204502 | 67 | 347 | 4.0 | 9.0 | 0.00 | 0.11 | 0.11 | 80 | 1007.1 |
| 20260506204003 | 67 | 283 | 7.0 | 12.0 | 0.00 | 0.11 | 0.11 | 80 | 1007.1 |
| 20260506203809 | 66 | 206 | 6.0 | 13.0 | 0.00 | 0.11 | 0.11 | 80 | 1007.0 |
| 20260506203004 | 66 | 230 | 7.0 | 13.0 | 0.00 | 0.11 | 0.11 | 81 | 1007.0 |
| 20260506202505 | 66 | 271 | 5.0 | 12.0 | 0.00 | 0.11 | 0.11 | 81 | 1007.0 |
| 20260506202003 | 65 | 251 | 5.0 | 12.0 | 0.00 | 0.11 | 0.11 | 82 | 1007.0 |
| 20260506201821 | 65 | 202 | 6.0 | 12.0 | 0.00 | 0.11 | 0.11 | 83 | 1007.0 |
| 20260506201004 | 65 | 285 | 6.0 | 12.0 | 0.00 | 0.11 | 0.11 | 83 | 1007.0 |
| 20260506200504 | 65 | 293 | 4.0 | 12.0 | 0.00 | 0.11 | 0.11 | 83 | 1007.1 |
| 20260506200004 | 65 | 172 | 5.0 | 12.0 | 0.00 | 0.11 | 0.11 | 83 | 1007.1 |
| 20260506195504 | 65 | 245 | 5.0 | 16.0 | 0.00 | 0.11 | 0.11 | 83 | 1007.1 |
| 20260506195003 | 64 | 279 | 9.0 | 16.0 | 0.00 | 0.11 | 0.11 | 84 | 1007.3 |
| 20260506194503 | 64 | 235 | 5.0 | 10.0 | 0.00 | 0.11 | 0.11 | 84 | 1007.3 |
| 20260506194004 | 64 | 290 | 7.0 | 14.0 | 0.00 | 0.11 | 0.11 | 84 | 1007.4 |
| 20260506193504 | 64 | 296 | 7.0 | 14.0 | 0.00 | 0.11 | 0.11 | 84 | 1007.4 |
| 20260506193002 | 64 | 203 | 5.0 | 15.0 | 0.00 | 0.11 | 0.11 | 85 | 1007.5 |
| 20260506192503 | 64 | 295 | 5.0 | 17.0 | 0.00 | 0.11 | 0.11 | 85 | 1007.4 |
| 20260506192330 | 63 | 210 | 8.0 | 17.0 | 0.00 | 0.11 | 0.11 | 84 | 1007.4 |
| 20260506191503 | 63 | 276 | 5.0 | 14.0 | 0.00 | 0.11 | 0.11 | 85 | 1007.5 |
| 20260506191004 | 63 | 269 | 5.0 | 15.0 | 0.00 | 0.11 | 0.11 | 86 | 1007.5 |
| 20260506190504 | 63 | 264 | 6.0 | 15.0 | 0.00 | 0.11 | 0.11 | 86 | 1007.7 |
| 20260506190321 | 62 | 255 | 5.0 | 12.0 | 0.00 | 0.11 | 0.11 | 86 | 1007.7 |
| 20260506185643 | 62 | 261 | 3.0 | 14.0 | 0.00 | 0.11 | 0.11 | 86 | 1007.7 |
| 20260506185606 | 62 | 266 | 5.0 | 12.0 | 0.00 | 0.11 | 0.11 | 86 | 1007.8 |
| 20260506184502 | 62 | 244 | 7.0 | 14.0 | 0.00 | 0.11 | 0.11 | 86 | 1007.7 |
| 20260506184002 | 62 | 266 | 5.0 | 12.0 | 0.00 | 0.11 | 0.11 | 87 | 1007.7 |
| 20260506183504 | 62 | 217 | 4.0 | 12.0 | 0.00 | 0.11 | 0.11 | 87 | 1007.8 |
| 20260506183003 | 62 | 209 | 7.0 | 12.0 | 0.00 | 0.11 | 0.11 | 87 | 1007.9 |
| 20260506182823 | 62 | 269 | 5.0 | 10.0 | 0.00 | 0.11 | 0.11 | 88 | 1007.9 |
| 20260506182003 | 62 | 235 | 6.0 | 15.0 | 0.00 | 0.11 | 0.11 | 88 | 1008.0 |
| 20260506181502 | 62 | 255 | 7.0 | 15.0 | 0.00 | 0.11 | 0.11 | 87 | 1008.1 |
| 20260506181004 | 62 | 166 | 5.0 | 11.0 | 0.00 | 0.11 | 0.11 | 88 | 1008.2 |
| 20260506180503 | 62 | 212 | 6.0 | 16.0 | 0.00 | 0.11 | 0.11 | 88 | 1008.0 |
| 20260506180004 | 61 | 216 | 5.0 | 16.0 | 0.00 | 0.11 | 0.11 | 89 | 1008.1 |
| 20260506175503 | 61 | 192 | 6.0 | 11.0 | 0.00 | 0.11 | 0.11 | 89 | 1008.1 |
| 20260506175318 | 61 | 204 | 4.0 | 7.0 | 0.00 | 0.11 | 0.11 | 89 | 1008.2 |
| 20260506174505 | 61 | 279 | 5.0 | 15.0 | 0.00 | 0.11 | 0.11 | 89 | 1008.2 |
| 20260506174003 | 61 | 279 | 5.0 | 15.0 | 0.00 | 0.11 | 0.11 | 89 | 1008.3 |
| 20260506173503 | 61 | 173 | 4.0 | 16.0 | 0.00 | 0.11 | 0.11 | 88 | 1008.3 |
| 20260506173004 | 61 | 219 | 7.0 | 16.0 | 0.00 | 0.11 | 0.11 | 89 | 1008.2 |
| 20260506172504 | 61 | 186 | 6.0 | 13.0 | 0.00 | 0.11 | 0.11 | 89 | 1008.2 |
| 20260506172001 | 61 | 230 | 4.0 | 10.0 | 0.00 | 0.11 | 0.11 | 89 | 1008.2 |
| 20260506171502 | 61 | 175 | 5.0 | 14.0 | 0.00 | 0.11 | 0.11 | 89 | 1008.2 |
| 20260506171005 | 61 | 223 | 6.0 | 17.0 | 0.01 | 0.11 | 0.11 | 89 | 1008.2 |
| 20260506170816 | 61 | 240 | 6.0 | 17.0 | 0.02 | 0.11 | 0.11 | 89 | 1008.4 |
| 20260506170001 | 61 | 292 | 6.0 | 15.0 | 0.03 | 0.08 | 0.11 | 89 | 1008.5 |
| 20260506165508 | 61 | 199 | 5.0 | 15.0 | 0.05 | 0.08 | 0.11 | 88 | 1008.4 |
| 20260506165500 | 61 | 152 | 6.0 | 15.0 | 0.06 | 0.08 | 0.11 | 89 | 1008.4 |
| 20260506165456 | 61 | 175 | 5.0 | 12.0 | 0.05 | 0.08 | 0.11 | 89 | 1008.4 |
| 20260506163948 | 61 | 316 | 8.0 | 15.0 | 0.06 | 0.08 | 0.11 | 89 | 1008.5 |
| 20260506163449 | 61 | 195 | 4.0 | 12.0 | 0.07 | 0.08 | 0.11 | 89 | 1008.4 |
| 20260506163318 | 61 | 224 | 6.0 | 11.0 | 0.07 | 0.08 | 0.11 | 89 | 1008.6 |
| 20260506162448 | 61 | 220 | 4.0 | 9.0 | 0.07 | 0.08 | 0.11 | 89 | 1008.6 |
| 20260506161948 | 61 | 189 | 6.0 | 7.0 | 0.07 | 0.08 | 0.11 | 90 | 1008.5 |
| 20260506161448 | 61 | 202 | 4.0 | 11.0 | 0.08 | 0.08 | 0.11 | 89 | 1008.6 |
| 20260506160948 | 61 | 213 | 4.0 | 11.0 | 0.08 | 0.08 | 0.10 | 88 | 1008.7 |
| 20260506160448 | 61 | 182 | 5.0 | 10.0 | 0.07 | 0.08 | 0.08 | 87 | 1008.8 |
| 20260506155947 | 61 | 310 | 4.0 | 9.0 | 0.06 | 0.01 | 0.07 | 87 | 1009.1 |
| 20260506155447 | 61 | 279 | 4.0 | 12.0 | 0.05 | 0.01 | 0.06 | 87 | 1009.3 |
| 20260506154948 | 61 | 190 | 5.0 | 12.0 | 0.05 | 0.01 | 0.06 | 87 | 1009.5 |
| 20260506154447 | 61 | 195 | 5.0 | 12.0 | 0.05 | 0.01 | 0.05 | 86 | 1009.6 |
| 20260506153948 | 61 | 240 | 3.0 | 12.0 | 0.05 | 0.01 | 0.05 | 86 | 1009.6 |
| 20260506153814 | 61 | 214 | 4.0 | 7.0 | 0.04 | 0.01 | 0.04 | 86 | 1009.6 |
| 20260506152947 | 62 | 295 | 4.0 | 9.0 | 0.04 | 0.01 | 0.04 | 86 | 1009.5 |
| 20260506152445 | 61 | 278 | 4.0 | 9.0 | 0.04 | 0.01 | 0.04 | 85 | 1009.5 |
| 20260506151944 | 62 | 195 | 3.0 | 10.0 | 0.04 | 0.01 | 0.04 | 85 | 1009.5 |
| 20260506151445 | 62 | 221 | 3.0 | 11.0 | 0.03 | 0.01 | 0.03 | 83 | 1009.4 |
| 20260506150945 | 62 | 185 | 5.0 | 11.0 | 0.02 | 0.01 | 0.02 | 83 | 1009.2 |
| 20260506150443 | 62 | 283 | 4.0 | 10.0 | 0.02 | 0.01 | 0.02 | 82 | 1009.3 |
| 20260506150304 | 62 | 282 | 4.0 | 9.0 | 0.01 | 0.00 | 0.01 | 82 | 1009.3 |
| 20260506145444 | 63 | 212 | 4.0 | 11.0 | 0.01 | 0.00 | 0.01 | 80 | 1009.1 |
| 20260506144943 | 63 | 286 | 4.0 | 11.0 | 0.01 | 0.00 | 0.01 | 81 | 1009.3 |
| 20260506144629 | 64 | 180 | 4.0 | 13.0 | 0.00 | 0.00 | 0.00 | 80 | 1009.5 |
| 20260506144547 | 63 | 214 | 5.0 | 13.0 | 0.00 | 0.00 | 0.00 | 81 | 1009.5 |
| 20260506143443 | 64 | 279 | 5.0 | 12.0 | 0.00 | 0.00 | 0.00 | 80 | 1009.4 |
| 20260506142944 | 64 | 195 | 5.0 | 10.0 | 0.00 | 0.00 | 0.00 | 79 | 1009.2 |
| 20260506142805 | 64 | 0.0 | 0.0 | 0.00 | 0.00 | 0.00 | 78 | 1009.4 | |
| 20260506141941 | 65 | 255 | 5.0 | 9.0 | 0.00 | 0.00 | 0.00 | 76 | 1009.5 |
| 20260506141441 | 65 | 255 | 5.0 | 9.0 | 0.00 | 0.00 | 0.00 | 76 | 1009.5 |
| 20260506140940 | 65 | 252 | 4.0 | 15.0 | 0.00 | 0.00 | 0.00 | 75 | 1009.5 |
| 20260506140441 | 65 | 199 | 5.0 | 15.0 | 0.00 | 0.00 | 0.00 | 73 | 1009.4 |
| 20260506135941 | 66 | 217 | 7.0 | 15.0 | 0.00 | 0.00 | 0.00 | 72 | 1009.4 |
| 20260506135805 | 66 | 257 | 6.0 | 16.0 | 0.00 | 0.00 | 0.00 | 72 | 1009.3 |
| 20260506134940 | 66 | 220 | 9.0 | 19.0 | 0.00 | 0.00 | 0.00 | 71 | 1009.2 |
| 20260506134441 | 66 | 262 | 10.0 | 19.0 | 0.00 | 0.00 | 0.00 | 72 | 1009.3 |
| 20260506133939 | 66 | 231 | 6.0 | 16.0 | 0.00 | 0.00 | 0.00 | 74 | 1009.3 |
| 20260506133439 | 66 | 254 | 6.0 | 15.0 | 0.00 | 0.00 | 0.00 | 74 | 1009.1 |
| 20260506132940 | 65 | 254 | 6.0 | 13.0 | 0.00 | 0.00 | 0.00 | 74 | 1009.1 |
| 20260506132440 | 65 | 207 | 6.0 | 14.0 | 0.00 | 0.00 | 0.00 | 73 | 1009.3 |
| 20260506131940 | 65 | 298 | 6.0 | 15.0 | 0.00 | 0.00 | 0.00 | 74 | 1009.3 |
| 20260506131440 | 65 | 226 | 6.0 | 15.0 | 0.00 | 0.00 | 0.00 | 74 | 1009.4 |
| 20260506130939 | 65 | 251 | 6.0 | 13.0 | 0.00 | 0.00 | 0.00 | 74 | 1009.3 |
| 20260506130439 | 65 | 179 | 4.0 | 15.0 | 0.00 | 0.00 | 0.00 | 75 | 1009.4 |
| 20260506125940 | 65 | 204 | 9.0 | 15.0 | 0.00 | 0.00 | 0.00 | 74 | 1009.4 |
| 20260506125438 | 65 | 190 | 5.0 | 12.0 | 0.00 | 0.00 | 0.00 | 74 | 1009.5 |
| 20260506124940 | 65 | 192 | 5.0 | 12.0 | 0.00 | 0.00 | 0.00 | 74 | 1009.6 |
| 20260506124440 | 65 | 190 | 4.0 | 19.0 | 0.00 | 0.00 | 0.00 | 74 | 1009.7 |
| 20260506123939 | 65 | 302 | 9.0 | 19.0 | 0.00 | 0.00 | 0.00 | 73 | 1009.6 |
| 20260506123438 | 65 | 189 | 4.0 | 15.0 | 0.00 | 0.00 | 0.00 | 73 | 1009.6 |
| 20260506122938 | 65 | 275 | 6.0 | 16.0 | 0.00 | 0.00 | 0.00 | 74 | 1009.4 |
| 20260506122807 | 65 | 196 | 8.0 | 16.0 | 0.00 | 0.00 | 0.00 | 74 | 1009.6 |
| 20260506121938 | 65 | 61 | 9.0 | 17.0 | 0.00 | 0.00 | 0.00 | 74 | 1009.4 |
| 20260506121759 | 65 | 212 | 9.0 | 17.0 | 0.00 | 0.00 | 0.00 | 74 | 1009.3 |
| 20260506121246 | 65 | 161 | 5.0 | 13.0 | 0.00 | 0.00 | 0.00 | 74 | 1009.3 |
| 20260506120438 | 65 | 155 | 6.0 | 13.0 | 0.00 | 0.00 | 0.00 | 74 | 1009.2 |
| 20260506115939 | 65 | 165 | 4.0 | 13.0 | 0.00 | 0.00 | 0.00 | 75 | 1009.2 |
| 20260506115442 | 65 | 268 | 5.0 | 14.0 | 0.00 | 0.00 | 0.00 | 74 | 1009.3 |
| 20260506115257 | 65 | 206 | 6.0 | 18.0 | 0.00 | 0.00 | 0.00 | 74 | 1009.3 |
| 20260506114440 | 65 | 234 | 6.0 | 18.0 | 0.00 | 0.00 | 0.00 | 75 | 1009.2 |
| 20260506113940 | 64 | 230 | 3.0 | 10.0 | 0.00 | 0.00 | 0.00 | 75 | 1009.1 |
| 20260506113438 | 64 | 217 | 3.0 | 12.0 | 0.00 | 0.00 | 0.00 | 76 | 1009.1 |
| 20260506112938 | 64 | 293 | 4.0 | 13.0 | 0.00 | 0.00 | 0.00 | 76 | 1009.1 |
| 20260506112758 | 64 | 261 | 5.0 | 16.0 | 0.00 | 0.00 | 0.00 | 76 | 1009.1 |
| 20260506112306 | 64 | 307 | 6.0 | 16.0 | 0.00 | 0.00 | 0.00 | 76 | 1009.1 |
| 20260506111802 | 64 | 185 | 4.0 | 11.0 | 0.00 | 0.00 | 0.00 | 76 | 1009.0 |
| 20260506110938 | 64 | 179 | 4.0 | 14.0 | 0.00 | 0.00 | 0.00 | 76 | 1009.0 |
| 20260506110437 | 64 | 161 | 6.0 | 18.0 | 0.00 | 0.00 | 0.00 | 76 | 1009.0 |
| 20260506105939 | 64 | 178 | 4.0 | 18.0 | 0.00 | 0.00 | 0.00 | 76 | 1009.1 |
| 20260506105439 | 64 | 199 | 8.0 | 15.0 | 0.00 | 0.00 | 0.00 | 76 | 1009.0 |
| 20260506105257 | 64 | 185 | 3.0 | 16.0 | 0.00 | 0.00 | 0.00 | 77 | 1008.9 |
| 20260506104804 | 63 | 173 | 7.0 | 16.0 | 0.00 | 0.00 | 0.00 | 77 | 1009.1 |
| 20260506104133 | 63 | 193 | 5.0 | 15.0 | 0.00 | 0.00 | 0.00 | 77 | 1008.9 |
| 20260506104048 | 63 | 212 | 6.0 | 16.0 | 0.00 | 0.00 | 0.00 | 77 | 1009.0 |
| 20260506102936 | 63 | 164 | 4.0 | 16.0 | 0.00 | 0.00 | 0.00 | 77 | 1009.0 |
| 20260506102437 | 63 | 166 | 9.0 | 16.0 | 0.00 | 0.00 | 0.00 | 77 | 1008.9 |
| 20260506101936 | 63 | 189 | 8.0 | 23.0 | 0.00 | 0.00 | 0.00 | 77 | 1008.9 |
| 20260506101436 | 63 | 161 | 7.0 | 23.0 | 0.00 | 0.00 | 0.00 | 77 | 1008.9 |
| 20260506100936 | 63 | 178 | 4.0 | 13.0 | 0.00 | 0.00 | 0.00 | 77 | 1009.0 |
| 20260506100436 | 63 | 134 | 5.0 | 13.0 | 0.00 | 0.00 | 0.00 | 77 | 1008.9 |
| 20260506095936 | 63 | 186 | 6.0 | 11.0 | 0.00 | 0.00 | 0.00 | 77 | 1008.9 |
| 20260506095437 | 63 | 179 | 2.0 | 11.0 | 0.00 | 0.00 | 0.00 | 77 | 1008.9 |
| 20260506094936 | 63 | 183 | 5.0 | 9.0 | 0.00 | 0.00 | 0.00 | 77 | 1009.0 |
| 20260506094436 | 63 | 238 | 3.0 | 11.0 | 0.00 | 0.00 | 0.00 | 77 | 1008.9 |
| 20260506093935 | 63 | 199 | 4.0 | 12.0 | 0.00 | 0.00 | 0.00 | 77 | 1009.1 |
| 20260506093435 | 63 | 231 | 4.0 | 12.0 | 0.00 | 0.00 | 0.00 | 76 | 1009.1 |
| 20260506093302 | 63 | 175 | 4.0 | 11.0 | 0.00 | 0.00 | 0.00 | 76 | 1009.1 |
| 20260506092436 | 64 | 190 | 5.0 | 13.0 | 0.00 | 0.00 | 0.00 | 76 | 1009.1 |
| 20260506091936 | 64 | 203 | 5.0 | 13.0 | 0.00 | 0.00 | 0.00 | 76 | 1009.1 |
| 20260506091437 | 64 | 190 | 4.0 | 12.0 | 0.00 | 0.00 | 0.00 | 76 | 1009.0 |
| 20260506090937 | 64 | 186 | 4.0 | 12.0 | 0.00 | 0.00 | 0.00 | 76 | 1009.0 |
| 20260506090436 | 64 | 155 | 5.0 | 12.0 | 0.00 | 0.00 | 0.00 | 75 | 1009.1 |
| 20260506085934 | 64 | 216 | 4.0 | 12.0 | 0.00 | 0.00 | 0.00 | 75 | 1009.1 |
| 20260506085434 | 65 | 189 | 5.0 | 11.0 | 0.00 | 0.00 | 0.00 | 75 | 1009.2 |
| 20260506084935 | 65 | 173 | 5.0 | 13.0 | 0.00 | 0.00 | 0.00 | 75 | 1009.2 |
| 20260506084436 | 65 | 199 | 6.0 | 13.0 | 0.00 | 0.00 | 0.00 | 74 | 1009.2 |
| 20260506084250 | 65 | 172 | 4.0 | 11.0 | 0.00 | 0.00 | 0.00 | 75 | 1009.2 |
| 20260506083434 | 65 | 188 | 5.0 | 11.0 | 0.00 | 0.00 | 0.00 | 75 | 1009.2 |
| 20260506082934 | 65 | 149 | 3.0 | 10.0 | 0.00 | 0.00 | 0.00 | 75 | 1009.2 |
| 20260506082435 | 65 | 180 | 4.0 | 15.0 | 0.00 | 0.00 | 0.00 | 74 | 1009.2 |
| 20260506081933 | 65 | 206 | 3.0 | 15.0 | 0.00 | 0.00 | 0.00 | 74 | 1009.2 |
| 20260506081433 | 65 | 219 | 3.0 | 7.0 | 0.00 | 0.00 | 0.00 | 74 | 1009.2 |
| 20260506081248 | 65 | 210 | 4.0 | 11.0 | 0.00 | 0.00 | 0.00 | 75 | 1009.3 |
| 20260506080434 | 65 | 186 | 6.0 | 11.0 | 0.00 | 0.00 | 0.00 | 75 | 1009.3 |
| 20260506073431 | 65 | 220 | 4.0 | 11.0 | 0.00 | 0.00 | 0.00 | 74 | 1009.4 |
| 20260506072932 | 65 | 182 | 4.0 | 10.0 | 0.00 | 0.00 | 0.00 | 74 | 1009.4 |
| 20260506072724 | 65 | 199 | 4.0 | 10.0 | 0.00 | 0.00 | 0.00 | 74 | 1009.5 |
| 20260506071932 | 65 | 209 | 5.0 | 10.0 | 0.00 | 0.00 | 0.00 | 74 | 1009.4 |
| 20260506071431 | 65 | 193 | 3.0 | 11.0 | 0.00 | 0.00 | 0.00 | 73 | 1009.5 |
| 20260506071248 | 65 | 166 | 5.0 | 12.0 | 0.00 | 0.00 | 0.00 | 73 | 1009.5 |
| 20260506070431 | 65 | 172 | 4.0 | 12.0 | 0.00 | 0.00 | 0.00 | 73 | 1009.5 |
| 20260506062227 | 66 | 217 | 5.0 | 12.0 | 0.00 | 0.00 | 0.00 | 71 | 1009.8 |
| 20260506061429 | 66 | 200 | 4.0 | 11.0 | 0.00 | 0.00 | 0.00 | 72 | 1009.7 |
| 20260506060930 | 66 | 274 | 6.0 | 11.0 | 0.00 | 0.00 | 0.00 | 72 | 1009.7 |
| 20260506060429 | 66 | 188 | 4.0 | 11.0 | 0.00 | 0.00 | 0.00 | 71 | 1009.8 |
| 20260506050927 | 65 | 196 | 4.0 | 9.0 | 0.00 | 0.00 | 0.00 | 70 | 1010.2 |
| 20260506050428 | 65 | 206 | 3.0 | 9.0 | 0.00 | 0.00 | 0.00 | 70 | 1010.2 |
| 20260506050243 | 65 | 173 | 3.0 | 9.0 | 0.00 | 0.00 | 0.00 | 70 | 1010.3 |
| 20260506044928 | 65 | 192 | 4.0 | 7.0 | 0.00 | 0.00 | 0.00 | 70 | 1010.3 |
| 20260506044428 | 65 | 176 | 3.0 | 6.0 | 0.00 | 0.00 | 0.00 | 70 | 1010.3 |
| 20260506044246 | 65 | 199 | 3.0 | 7.0 | 0.00 | 0.00 | 0.00 | 70 | 1010.3 |
| 20260506043427 | 65 | 173 | 2.0 | 9.0 | 0.00 | 0.00 | 0.00 | 70 | 1010.3 |
| 20260506042927 | 65 | 227 | 2.0 | 9.0 | 0.00 | 0.00 | 0.00 | 70 | 1010.4 |
| 20260506042426 | 65 | 193 | 3.0 | 6.0 | 0.00 | 0.00 | 0.00 | 69 | 1010.4 |
| 20260506042240 | 65 | 195 | 3.0 | 7.0 | 0.00 | 0.00 | 0.00 | 69 | 1010.4 |
| 20260506041749 | 65 | 190 | 3.0 | 7.0 | 0.00 | 0.00 | 0.00 | 69 | 1010.3 |
| 20260506040926 | 65 | 183 | 2.0 | 5.0 | 0.00 | 0.00 | 0.00 | 68 | 1010.4 |
| 20260506040427 | 66 | 219 | 2.0 | 7.0 | 0.00 | 0.00 | 0.00 | 68 | 1010.4 |
| 20260506035926 | 66 | 189 | 3.0 | 7.0 | 0.00 | 0.00 | 0.00 | 68 | 1010.3 |
| 20260506035755 | 66 | 202 | 3.0 | 5.0 | 0.00 | 0.00 | 0.00 | 67 | 1010.3 |
| 20260506035238 | 66 | 210 | 2.0 | 6.0 | 0.00 | 0.00 | 0.00 | 67 | 1010.4 |
| 20260506034426 | 66 | 206 | 3.0 | 6.0 | 0.00 | 0.00 | 0.00 | 66 | 1010.4 |
| 20260506033926 | 66 | 247 | 3.0 | 7.0 | 0.00 | 0.00 | 0.00 | 66 | 1010.3 |
| 20260506033426 | 66 | 175 | 3.0 | 7.0 | 0.00 | 0.00 | 0.00 | 66 | 1010.3 |
| 20260506032926 | 66 | 178 | 4.0 | 7.0 | 0.00 | 0.00 | 0.00 | 66 | 1010.2 |
| 20260506032426 | 67 | 161 | 3.0 | 5.0 | 0.00 | 0.00 | 0.00 | 65 | 1010.2 |
| 20260506032247 | 67 | 196 | 4.0 | 7.0 | 0.00 | 0.00 | 0.00 | 65 | 1010.2 |
| 20260506031425 | 67 | 196 | 4.0 | 7.0 | 0.00 | 0.00 | 0.00 | 64 | 1010.2 |
| 20260506030925 | 67 | 159 | 3.0 | 10.0 | 0.00 | 0.00 | 0.00 | 64 | 1010.2 |
| 20260506030424 | 67 | 173 | 7.0 | 10.0 | 0.00 | 0.00 | 0.00 | 63 | 1010.2 |
| 20260506025927 | 68 | 202 | 3.0 | 7.0 | 0.00 | 0.00 | 0.00 | 63 | 1010.3 |
| 20260506025427 | 68 | 176 | 4.0 | 11.0 | 0.00 | 0.00 | 0.00 | 62 | 1010.3 |
| 20260506024926 | 68 | 178 | 4.0 | 11.0 | 0.00 | 0.00 | 0.00 | 61 | 1010.3 |
| 20260506024426 | 69 | 202 | 4.0 | 9.0 | 0.00 | 0.00 | 0.00 | 60 | 1010.3 |
| 20260506023927 | 69 | 209 | 4.0 | 9.0 | 0.00 | 0.00 | 0.00 | 60 | 1010.3 |
| 20260506023746 | 69 | 190 | 4.0 | 9.0 | 0.00 | 0.00 | 0.00 | 60 | 1010.3 |
| 20260506023246 | 69 | 197 | 4.0 | 7.0 | 0.00 | 0.00 | 0.00 | 59 | 1010.3 |
| 20260506022425 | 69 | 140 | 4.0 | 7.0 | 0.00 | 0.00 | 0.00 | 58 | 1010.3 |
| 20260506021927 | 69 | 212 | 3.0 | 11.0 | 0.00 | 0.00 | 0.00 | 58 | 1010.3 |
| 20260506021423 | 70 | 200 | 2.0 | 12.0 | 0.00 | 0.00 | 0.00 | 57 | 1010.3 |
| 20260506020923 | 70 | 188 | 3.0 | 12.0 | 0.00 | 0.00 | 0.00 | 57 | 1010.2 |
| 20260506020424 | 70 | 186 | 3.0 | 10.0 | 0.00 | 0.00 | 0.00 | 56 | 1010.2 |
| 20260506015924 | 70 | 216 | 4.0 | 10.0 | 0.00 | 0.00 | 0.00 | 55 | 1010.2 |
| 20260506015425 | 71 | 175 | 4.0 | 14.0 | 0.00 | 0.00 | 0.00 | 54 | 1010.1 |
| 20260506014923 | 71 | 131 | 3.0 | 14.0 | 0.00 | 0.00 | 0.00 | 54 | 1010.0 |
| 20260506014423 | 71 | 171 | 6.0 | 11.0 | 0.00 | 0.00 | 0.00 | 53 | 1010.0 |
| 20260506013922 | 71 | 176 | 3.0 | 10.0 | 0.00 | 0.00 | 0.00 | 52 | 1010.0 |
| 20260506013424 | 71 | 162 | 5.0 | 9.0 | 0.00 | 0.00 | 0.00 | 52 | 1009.9 |
| 20260506012923 | 71 | 131 | 5.0 | 9.0 | 0.00 | 0.00 | 0.00 | 52 | 1009.8 |
| 20260506012422 | 72 | 210 | 3.0 | 11.0 | 0.00 | 0.00 | 0.00 | 51 | 1009.8 |
| 20260506011922 | 72 | 186 | 3.0 | 11.0 | 0.00 | 0.00 | 0.00 | 51 | 1009.8 |
| 20260506011422 | 72 | 226 | 4.0 | 11.0 | 0.00 | 0.00 | 0.00 | 50 | 1009.7 |
| 20260506011106 | 73 | 168 | 4.0 | 11.0 | 0.00 | 0.00 | 0.00 | 49 | 1009.6 |
| 20260506011024 | 72 | 200 | 4.0 | 11.0 | 0.00 | 0.00 | 0.00 | 49 | 1009.7 |
| 20260506005923 | 73 | 199 | 6.0 | 7.0 | 0.00 | 0.00 | 0.00 | 48 | 1009.6 |
| 20260506005422 | 73 | 175 | 4.0 | 14.0 | 0.00 | 0.00 | 0.00 | 48 | 1009.5 |
| 20260506004922 | 73 | 226 | 5.0 | 14.0 | 0.00 | 0.00 | 0.00 | 48 | 1009.4 |
| 20260506004423 | 73 | 176 | 5.0 | 12.0 | 0.00 | 0.00 | 0.00 | 47 | 1009.4 |
| 20260506003923 | 73 | 175 | 6.0 | 14.0 | 0.00 | 0.00 | 0.00 | 47 | 1009.4 |
| 20260506003423 | 74 | 217 | 5.0 | 14.0 | 0.00 | 0.00 | 0.00 | 46 | 1009.5 |
| 20260506002921 | 74 | 197 | 3.0 | 12.0 | 0.00 | 0.00 | 0.00 | 46 | 1009.4 |
| 20260506002422 | 74 | 117 | 4.0 | 12.0 | 0.00 | 0.00 | 0.00 | 45 | 1009.3 |
| 20260506001921 | 74 | 202 | 6.0 | 12.0 | 0.00 | 0.00 | 0.00 | 45 | 1009.2 |
| 20260506001420 | 74 | 154 | 5.0 | 9.0 | 0.00 | 0.00 | 0.00 | 45 | 1009.2 |
| 20260506000921 | 74 | 179 | 6.0 | 19.0 | 0.00 | 0.00 | 0.00 | 45 | 1009.2 |
| 20260506000423 | 74 | 186 | 6.0 | 19.0 | 0.00 | 0.00 | 0.00 | 45 | 1009.1 |
| 20260505235921 | 75 | 199 | 6.0 | 14.0 | 0.00 | 0.00 | 0.00 | 45 | 1009.0 |
| 20260505235422 | 75 | 227 | 5.0 | 14.0 | 0.00 | 0.00 | 0.00 | 44 | 1008.9 |
| 20260505235243 | 75 | 192 | 4.0 | 11.0 | 0.00 | 0.00 | 0.00 | 45 | 1008.9 |
| 20260505234420 | 75 | 196 | 5.0 | 11.0 | 0.00 | 0.00 | 0.00 | 45 | 1008.9 |
| 20260505234214 | 76 | 237 | 6.0 | 11.0 | 0.00 | 0.00 | 0.00 | 44 | 1008.8 |
| 20260505233420 | 76 | 224 | 5.0 | 14.0 | 0.00 | 0.00 | 0.00 | 44 | 1008.9 |
| 20260505232922 | 76 | 165 | 6.0 | 14.0 | 0.00 | 0.00 | 0.00 | 44 | 1008.8 |
| 20260505232419 | 76 | 169 | 4.0 | 17.0 | 0.00 | 0.00 | 0.00 | 42 | 1008.9 |
| 20260505231920 | 76 | 238 | 7.0 | 17.0 | 0.00 | 0.00 | 0.00 | 41 | 1008.9 |
| 20260505231421 | 76 | 176 | 6.0 | 14.0 | 0.00 | 0.00 | 0.00 | 41 | 1008.8 |
| 20260505230919 | 77 | 257 | 7.0 | 13.0 | 0.00 | 0.00 | 0.00 | 42 | 1008.8 |
| 20260505230420 | 77 | 197 | 5.0 | 14.0 | 0.00 | 0.00 | 0.00 | 41 | 1008.8 |
| 20260505225919 | 77 | 189 | 6.0 | 14.0 | 0.00 | 0.00 | 0.00 | 41 | 1008.8 |
| 20260505225420 | 77 | 248 | 6.0 | 11.0 | 0.00 | 0.00 | 0.00 | 42 | 1008.7 |
| 20260505224919 | 77 | 268 | 6.0 | 14.0 | 0.00 | 0.00 | 0.00 | 42 | 1008.8 |
| 20260505224419 | 77 | 257 | 6.0 | 14.0 | 0.00 | 0.00 | 0.00 | 42 | 1008.7 |
| 20260505223919 | 78 | 145 | 9.0 | 14.0 | 0.00 | 0.00 | 0.00 | 42 | 1008.6 |
| 20260505223744 | 78 | 196 | 6.0 | 12.0 | 0.00 | 0.00 | 0.00 | 41 | 1008.7 |
| 20260505222919 | 78 | 233 | 5.0 | 18.0 | 0.00 | 0.00 | 0.00 | 41 | 1008.6 |
| 20260505222418 | 78 | 152 | 6.0 | 18.0 | 0.00 | 0.00 | 0.00 | 41 | 1008.7 |
| 20260505221919 | 78 | 216 | 10.0 | 16.0 | 0.00 | 0.00 | 0.00 | 40 | 1008.7 |
| 20260505221417 | 78 | 207 | 7.0 | 15.0 | 0.00 | 0.00 | 0.00 | 41 | 1008.8 |
| 20260505220918 | 78 | 202 | 8.0 | 15.0 | 0.00 | 0.00 | 0.00 | 40 | 1008.8 |
| 20260505220747 | 78 | 189 | 8.0 | 15.0 | 0.00 | 0.00 | 0.00 | 39 | 1008.8 |
| 20260505215919 | 79 | 183 | 8.0 | 15.0 | 0.00 | 0.00 | 0.00 | 39 | 1008.8 |
| 20260505215417 | 79 | 176 | 6.0 | 15.0 | 0.00 | 0.00 | 0.00 | 40 | 1008.8 |
| 20260505214918 | 79 | 285 | 6.0 | 17.0 | 0.00 | 0.00 | 0.00 | 40 | 1008.7 |
| 20260505214750 | 79 | 269 | 9.0 | 17.0 | 0.00 | 0.00 | 0.00 | 38 | 1008.6 |
| 20260505213917 | 80 | 169 | 9.0 | 17.0 | 0.00 | 0.00 | 0.00 | 38 | 1008.7 |
| 20260505213416 | 80 | 251 | 8.0 | 18.0 | 0.00 | 0.00 | 0.00 | 40 | 1008.8 |
| 20260505213240 | 79 | 272 | 8.0 | 18.0 | 0.00 | 0.00 | 0.00 | 39 | 1008.7 |
| 20260505212418 | 79 | 269 | 9.0 | 16.0 | 0.00 | 0.00 | 0.00 | 40 | 1008.6 |
| 20260505211917 | 79 | 165 | 7.0 | 16.0 | 0.00 | 0.00 | 0.00 | 39 | 1008.7 |